Flag for Canada Weather past 2 weeks in Oakville, Ontario, Canada

Now
57 °F

Cool.


Feels Like: 57 °F
Forecast: 57 / 75 °F
Wind: 2 mph from Northeast

Location: Burlington Piers

Current Time: May 29, 2015 at 2:39:12 AM

Latest Report: May 29, 2015 at 2:00 AM


Visibility: N/A

Pressure: 30.23 "Hg

Humidity: 82%

Dew point: 52 °F

Location of OakvilleLocation

Historic Weather in Oakville — Graph

°F

Oakville temperature yesterday

Maximum temperature yesterday: 74 °F (at 7:00 PM)
Minimum temperature yesterday: 58 °F (at 4:00 PM)
Average temperature yesterday: 65 °F

Past Weeks' High & Low Weather Summary

 TemperatureHumidityPressure
High80 °F (May 26, 6:00 PM)90% (May 18, 4:00 AM)30.49 "Hg (May 18, 4:00 AM)
Low41 °F (May 20, 5:00 AM)19% (May 21, 5:00 PM)29.83 "Hg (May 21, 5:00 PM)
Average59 °F59%30.09 "Hg
* Reported May 14 1:00 AM — May 29 1:00 AM, Oakville, Weather by CustomWeather, © 2015

Note: Actual official high and low records may vary slightly from our data, if they occured in-between our weather recording intervals... More about our weather records

Advertising

Oakville weather history for previous 24 hours

 ConditionsComfort  
Time TempWeatherWind HumidityBarometerVisibility
1:00 AM
Fri, May 29
61 °FCool.1 mph71%30.24 "HgN/A
12:00 AM63 °FMild.3 mph62%30.24 "HgN/A
11:00 PM
Thu, May 28
70 °FMild.3 mph56%30.25 "HgN/A
10:00 PM70 °FMild.5 mph57%30.24 "HgN/A
9:00 PM72 °FMild.6 mph52%30.23 "HgN/A
8:00 PM73 °FMild.8 mph50%30.22 "HgN/A
7:00 PM74 °FMild.9 mph49%30.21 "HgN/A
6:00 PM68 °FMild.5 mph64%30.21 "HgN/A
5:00 PM60 °FCool.8 mph67%30.21 "HgN/A
4:00 PM58 °FCool.10 mph70%30.22 "HgN/A
3:00 PM62 °FMild.9 mph65%30.23 "HgN/A
2:00 PM59 °FCool.7 mph72%30.24 "HgN/A
1:00 PM60 °FCool.12 mph69%30.23 "HgN/A
12:00 PM68 °FMild.9 mph54%30.22 "HgN/A
11:00 AM64 °FMild.9 mph60%30.22 "HgN/A
10:00 AM65 °FMild.1 mph57%30.20 "HgN/A
9:00 AM65 °FMild.9 mph59%30.20 "HgN/A
8:00 AM62 °FCool.3 mph67%30.18 "HgN/A
7:00 AM60 °FCool.8 mph71%30.16 "HgN/A
6:00 AM60 °FCool.8 mph72%30.12 "HgN/A
5:00 AM61 °FCool.10 mph72%30.07 "HgN/A
4:00 AM62 °FCool.9 mph70%30.06 "HgN/A
3:00 AM64 °FMild.7 mph67%30.04 "HgN/A
2:00 AM64 °FMild.7 mph81%30.02 "HgN/A
Weather by CustomWeather, © 2015

See weather overviewHow to use our weather pages